Location: *
(46.4833°N, 7.6667°E)
Time: 09:20:59
(UTC+00:00)

Cosmos 2227 Rocket - Pass Details

Date: 27 February 2020
Orbit: 839 x 845 km, 71.0° (Epoch: 04 April)

Event Time Altitude Azimuth Distance (km) Brightness Sun altitude
Rises 19:57:54 0° 332° (NNW) 3,406 6.0 -29.0°
Reaches altitude 10° 20:00:22 10° 330° (NNW) 2,468 5.2 -29.4°
Enters shadow 20:05:32 70° 290° (WNW) 897 2.3 -30.3°
